sat.trackr.live / text

‹ back to catalog

STARLINK-5535

NORAD 56356 · 2023-058AR

PAYLOAD ACTIVE UNKNOWN

§ Identity

Operator
Country
US
Launch date
2023-04-27
Launch site
AFWTR
Launch vehicle
Mass (kg)
RCS (m²)

Purposes: comms

External: N2YO · Heavens-Above · Gunter

§ Orbital elements

Epoch: 2026-05-24T23:15:36.737280Z

Period
95.64 min
Inclination
97.4490°
Eccentricity
0.0001504
Mean motion
15.05689538 rev/d
Perigee alt
548.3 km
Apogee alt
550.4 km
Semi-major
6,927.5 km
B*
-5.2081e-4
RAAN
146.0302°
Arg perigee
63.5829°
Mean anomaly
296.5553°
Rev number
16,967

§ Raw data

STARLINK-55351 56356U 23058AR  26144.96917520 -.00007573  00000+0 -52081-3 0  99912 56356  97.4490 146.0302 0001504  63.5829 296.5553 15.05689538169673

JSON: /api/v1/satellites/56356 · /tle

For live sub-satellite position, see the globe view (requires WebGL).

§ Visibility from observer

Set your observer location to see the next 7 days of passes ≥ 10°. The values pass through the URL so the page stays shareable.

No JS? Fill the form by hand. The geolocation button needs JavaScript.